Frenchville, ME

5:03 AM EDT on October 24, 2017 (GMT -0400)
Northern Aroostook Regional

Weather History for KFVE - June, 2013

Change the Weather History Date:

Monday, June 17, 2013

  Actual Average Record
Temperature  
Mean Temperature 54 °F 60 °F  
Max Temperature 60 °F 70 °F 79 °F (2000)
Min Temperature 48 °F 50 °F 41 °F (2016)
Degree Days  
Heating Degree Days 11    
Month to date heating degree days 155  
Since 1 July heating degree days 9037  
Cooling Degree Days 0    
Month to date cooling degree days 0  
Year to date cooling degree days 11  
Growing Degree Days 4 (Base 50)    
Moisture  
Dew Point 51 °F    
Average Humidity 91    
Maximum Humidity 100    
Minimum Humidity 82    
Precipitation  
Precipitation 0.05 in 0.14 in 0.86 in (2011)
Month to date precipitation 2.44 1.95  
Year to date precipitation 12.33 11.85  
Sea Level Pressure  
Sea Level Pressure 29.75 in    
Wind  
Wind Speed 5 mph (ESE)    
Max Wind Speed 15 mph    
Max Gust Speed 18 mph    
Visibility 10 miles    
Events Rain    
T = Trace of Precipitation, MM = Missing Value Source: NWS Daily Summary

Daily Weather History Graph

Daily Weather History Graph

Search for Another Location

Airport or City:

Trip Planner

Search our weather history database for the weather conditions in past years. The results will help you decide how hot, cold, wet, or windy it might be!

Date:

Astronomy

Jun. 17, 2013 Rise Set
Actual Time 4:36 AM EDT 8:32 PM EDT
Civil Twilight 3:56 AM EDT 9:12 PM EDT
Nautical Twilight 3:00 AM EDT 10:07 PM EDT
Astronomical Twilight 1:35 AM EDT 11:33 PM EDT
Moon 1:46 PM EDT (6/17) 12:33 AM EDT (6/17)
Length of Visible Light 17h 16m
Length of Day
15h 55m
First Quarter, 60% of the Moon is Illuminated
Jun 17
First Quarter
Jun 23
Full
Jun 30
Last Quarter
Jul 8
New
Jul 15
First Quarter

Hourly Weather History & Observations

Time (EDT) Temp. Dew Point Humidity Pressure Visibility Wind Dir Wind Speed Gust Speed Precip Events Conditions
12:11 AM 48.2 °F 46.4 °F 93% 29.76 in 10.0 mi Calm Calm - 0.00 in   Overcast
12:49 AM 48.2 °F 46.4 °F 93% 29.75 in 10.0 mi East 3.5 mph - 0.00 in   Overcast
12:53 AM 48.0 °F 46.9 °F 96% 29.75 in 10.0 mi ENE 4.6 mph - 0.00 in   Overcast
1:21 AM 48.2 °F 46.4 °F 93% 29.74 in 10.0 mi East 5.8 mph - N/A   Overcast
1:43 AM 48.2 °F 46.4 °F 93% 29.73 in 10.0 mi East 4.6 mph - N/A   Overcast
1:53 AM 48.0 °F 46.9 °F 96% 29.73 in 9.0 mi East 4.6 mph - N/A   Overcast
2:53 AM 48.0 °F 48.0 °F 100% 29.72 in 9.0 mi Variable 3.5 mph - N/A   Overcast
3:23 AM 48.2 °F 48.2 °F 100% 29.72 in 10.0 mi Calm Calm - N/A   Overcast
3:53 AM 48.9 °F 48.0 °F 97% 29.72 in 10.0 mi East 4.6 mph - N/A   Overcast
4:53 AM 48.9 °F 48.0 °F 97% 29.73 in 10.0 mi ENE 3.5 mph - N/A   Overcast
5:53 AM 50.0 °F 48.0 °F 93% 29.73 in 10.0 mi ENE 3.5 mph - N/A   Overcast
6:25 AM 51.8 °F 48.2 °F 88% 29.73 in 10.0 mi Variable 3.5 mph - N/A   Overcast
6:36 AM 50.0 °F 48.2 °F 94% 29.73 in 10.0 mi East 4.6 mph - N/A   Overcast
6:53 AM 50.0 °F 48.9 °F 96% 29.75 in 10.0 mi East 4.6 mph - N/A   Overcast
7:53 AM 50.0 °F 48.9 °F 96% 29.77 in 10.0 mi Calm Calm - N/A   Overcast
8:53 AM 51.1 °F 48.9 °F 92% 29.76 in 10.0 mi East 3.5 mph - N/A   Overcast
9:53 AM 52.0 °F 50.0 °F 93% 29.76 in 10.0 mi SE 3.5 mph - N/A   Overcast
10:53 AM 53.1 °F 51.1 °F 93% 29.75 in 10.0 mi ENE 3.5 mph - N/A   Overcast
11:18 AM 53.6 °F 50.0 °F 88% 29.75 in 10.0 mi Calm Calm - N/A   Overcast
11:53 AM 55.0 °F 52.0 °F 89% 29.76 in 10.0 mi Variable 3.5 mph - N/A   Overcast
12:53 PM 54.0 °F 52.0 °F 93% 29.76 in 10.0 mi Calm Calm - N/A   Overcast
1:53 PM 55.9 °F 52.0 °F 87% 29.76 in 10.0 mi Calm Calm - N/A   Overcast
2:00 PM 55.4 °F 51.8 °F 88% 29.75 in 10.0 mi Calm Calm - N/A   Overcast
2:20 PM 55.4 °F 53.6 °F 94% 29.76 in 5.0 mi SSE 3.5 mph - N/A   Overcast
2:29 PM 55.4 °F 53.6 °F 94% 29.75 in 5.0 mi SE 4.6 mph - N/A   Overcast
2:37 PM 55.4 °F 53.6 °F 94% 29.76 in 5.0 mi SSE 4.6 mph - N/A   Overcast
2:53 PM 55.9 °F 53.1 °F 90% 29.76 in 10.0 mi East 3.5 mph - N/A   Overcast
3:04 PM 57.2 °F 53.6 °F 88% 29.75 in 10.0 mi SE 4.6 mph - N/A   Overcast
3:28 PM 57.2 °F 53.6 °F 88% 29.75 in 10.0 mi SE 5.8 mph - N/A   Overcast
3:38 PM 57.2 °F 53.6 °F 88% 29.75 in 10.0 mi Variable 4.6 mph - N/A   Overcast
3:49 PM 57.2 °F 53.6 °F 88% 29.75 in 10.0 mi SE 4.6 mph - N/A   Overcast
3:53 PM 57.9 °F 53.1 °F 84% 29.75 in 10.0 mi SE 5.8 mph - N/A   Overcast
4:31 PM 57.2 °F 53.6 °F 88% 29.75 in 10.0 mi ESE 4.6 mph - N/A   Overcast
4:44 PM 59.0 °F 53.6 °F 82% 29.74 in 10.0 mi ESE 5.8 mph - N/A   Mostly Cloudy
4:49 PM 59.0 °F 53.6 °F 82% 29.74 in 10.0 mi SE 5.8 mph - N/A   Scattered Clouds
4:53 PM 59.0 °F 54.0 °F 83% 29.75 in 10.0 mi SSE 5.8 mph - N/A   Scattered Clouds
5:18 PM 59.0 °F 53.6 °F 82% 29.74 in 10.0 mi SE 5.8 mph - N/A   Overcast
5:41 PM 59.0 °F 53.6 °F 82% 29.75 in 10.0 mi SSE 4.6 mph - N/A   Overcast
5:53 PM 59.0 °F 54.0 °F 83% 29.75 in 10.0 mi SE 4.6 mph - N/A   Overcast
6:53 PM 59.0 °F 55.0 °F 87% 29.75 in 10.0 mi SE 4.6 mph - N/A   Mostly Cloudy
7:02 PM 59.0 °F 55.4 °F 88% 29.74 in 10.0 mi SE 6.9 mph - N/A   Mostly Cloudy
7:53 PM 57.9 °F 55.9 °F 93% 29.75 in 10.0 mi SE 5.8 mph - 0.01 in Rain Light Rain
8:53 PM 57.0 °F 55.9 °F 96% 29.75 in 10.0 mi South 4.6 mph - 0.00 in   Mostly Cloudy
9:53 PM 57.0 °F 54.0 °F 89% 29.77 in 10.0 mi West 9.2 mph - 0.04 in Rain Light Rain
10:29 PM 55.4 °F 53.6 °F 94% 29.77 in 10.0 mi NW 6.9 mph - 0.00 in   Mostly Cloudy
10:37 PM 55.4 °F 53.6 °F 94% 29.77 in 10.0 mi NNW 9.2 mph - 0.00 in   Mostly Cloudy
10:53 PM 55.0 °F 53.1 °F 93% 29.78 in 10.0 mi NW 12.7 mph - 0.00 in   Overcast
11:53 PM 52.0 °F 48.9 °F 89% 29.80 in 10.0 mi NW 11.5 mph - N/A   Overcast